• Em Portugal
  • Lista de países
  • Para 7 dias
  • Temperatura da água
  • Mapas de satélite
  • Mapa do tempo
  • Widgets de tempo
  • user-avatar
    Iniciar Sessão

    Previsão horária em Konstantyna

    Hoje, 17 Dezembro, Domingo

    Tempo Temperatura Precipitação Vento Pressão Humidade
    00:00 +5°C° 0,1 mm 2 m/s 711 mmHg 89%
    01:00 +5°C° 0,1 mm 2 m/s 712 mmHg 89%
    02:00 +5°C° 0,1 mm 2 m/s 712 mmHg 90%
    03:00 +4°C° 0,1 mm 2 m/s 712 mmHg 90%
    04:00 +5°C° 0,1 mm 1 m/s 712 mmHg 91%
    05:00 +5°C° 0,1 mm 1 m/s 712 mmHg 91%
    06:00 +4°C° 0,1 mm 1 m/s 712 mmHg 91%
    07:00 +5°C° 0,1 mm 1 m/s 713 mmHg 86%
    08:00 +5°C° 0,1 mm 2 m/s 714 mmHg 81%
    09:00 +6°C° 0,1 mm 2 m/s 714 mmHg 76%
    10:00 +7°C° 0,2 mm 2 m/s 714 mmHg 74%
    11:00 +7°C° 0,2 mm 3 m/s 714 mmHg 72%
    12:00 +8°C° 0,2 mm 3 m/s 714 mmHg 70%
    13:00 +6°C° 0,2 mm 4 m/s 714 mmHg 72%
    14:00 +6°C° 0,2 mm 4 m/s 714 mmHg 73%
    15:00 +6°C° 0,2 mm 4 m/s 714 mmHg 74%
    16:00 +5°C° 0,2 mm 4 m/s 715 mmHg 77%
    17:00 +5°C° 0,2 mm 4 m/s 715 mmHg 80%
    18:00 +4°C° 0,2 mm 4 m/s 715 mmHg 83%
    19:00 +4°C° 0,1 mm 4 m/s 715 mmHg 84%
    20:00 +4°C° 0,1 mm 3 m/s 716 mmHg 85%
    21:00 +3°C° 0,1 mm 3 m/s 716 mmHg 86%
    22:00 +3°C° 0,2 mm 3 m/s 716 mmHg 86%
    23:00 +4°C° 0,2 mm 3 m/s 716 mmHg 86%

    Amanhã, 18 Dezembro, Segunda-feira

    Tempo Temperatura Precipitação Vento Pressão Humidade
    00:00 +4°C° 0,2 mm 3 m/s 717 mmHg 86%
    01:00 +4°C° 0,2 mm 3 m/s 717 mmHg 87%
    02:00 +4°C° 0,2 mm 3 m/s 717 mmHg 87%
    03:00 +4°C° 0,2 mm 3 m/s 717 mmHg 88%
    04:00 +4°C° 0,3 mm 3 m/s 717 mmHg 88%
    05:00 +4°C° 0,3 mm 3 m/s 717 mmHg 89%
    06:00 +4°C° 0,3 mm 3 m/s 717 mmHg 89%
    07:00 +4°C° 0,2 mm 4 m/s 717 mmHg 87%
    08:00 +5°C° 0,2 mm 4 m/s 717 mmHg 86%
    09:00 +5°C° 0,2 mm 4 m/s 718 mmHg 84%
    10:00 +5°C° 0,2 mm 4 m/s 717 mmHg 82%
    11:00 +6°C° 0,2 mm 4 m/s 717 mmHg 80%
    12:00 +6°C° 0,2 mm 5 m/s 717 mmHg 78%
    13:00 +6°C° 0,2 mm 4 m/s 717 mmHg 80%
    14:00 +6°C° 0,2 mm 4 m/s 716 mmHg 82%
    15:00 +7°C° 0,2 mm 3 m/s 716 mmHg 84%
    16:00 +7°C° 0,2 mm 3 m/s 716 mmHg 86%
    17:00 +5°C° 0,2 mm 3 m/s 716 mmHg 88%
    18:00 +5°C° 0,2 mm 3 m/s 716 mmHg 89%
    19:00 +5°C° 0,2 mm 3 m/s 716 mmHg 90%
    20:00 +5°C° 0,2 mm 3 m/s 716 mmHg 90%
    21:00 +4°C° 0,2 mm 3 m/s 716 mmHg 90%
    22:00 +4°C° 0,1 mm 3 m/s 715 mmHg 90%
    23:00 +4°C° 0,1 mm 3 m/s 715 mmHg 90%

    Depois de amanhã, 19 Dezembro, Terça-feira

    Tempo Temperatura Precipitação Vento Pressão Humidade
    00:00 +3°C° 0,1 mm 3 m/s 715 mmHg 90%
    01:00 +3°C° 0,1 mm 3 m/s 714 mmHg 89%
    02:00 +3°C° 0,1 mm 3 m/s 714 mmHg 88%
    03:00 +3°C° 0,1 mm 3 m/s 713 mmHg 87%
    04:00 +3°C° 0,4 mm 3 m/s 713 mmHg 86%
    05:00 +3°C° 0,4 mm 3 m/s 713 mmHg 84%
    06:00 +5°C° 0,4 mm 2 m/s 713 mmHg 82%
    07:00 +4°C° 0,6 mm 3 m/s 713 mmHg 80%
    08:00 +5°C° 0,6 mm 3 m/s 714 mmHg 77%
    09:00 +5°C° 0,6 mm 3 m/s 714 mmHg 74%
    10:00 +7°C° 0,5 mm 3 m/s 714 mmHg 74%
    11:00 +7°C° 0,5 mm 3 m/s 713 mmHg 73%
    12:00 +7°C° 0,5 mm 3 m/s 713 mmHg 73%
    13:00 +8°C° 0,2 mm 3 m/s 713 mmHg 72%
    14:00 +8°C° 0,2 mm 3 m/s 713 mmHg 71%
    15:00 +8°C° 0,2 mm 3 m/s 712 mmHg 70%
    16:00 +7°C° 0,1 mm 3 m/s 712 mmHg 73%
    17:00 +7°C° 0,1 mm 3 m/s 713 mmHg 76%
    18:00 +6°C° 0,1 mm 2 m/s 713 mmHg 79%
    19:00 +6°C° 0 mm 2 m/s 713 mmHg 80%
    20:00 +5°C° 0 mm 2 m/s 713 mmHg 81%
    21:00 +6°C° 0 mm 1 m/s 714 mmHg 82%
    22:00 +6°C° 0,1 mm 1 m/s 714 mmHg 83%
    23:00 +6°C° 0,1 mm 1 m/s 714 mmHg 83%

    20 Dezembro, Quarta-feira

    Tempo Temperatura Precipitação Vento Pressão Humidade
    00:00 +6°C° 0,1 mm 1 m/s 715 mmHg 84%
    01:00 +6°C° 0,1 mm 1 m/s 715 mmHg 86%
    02:00 +6°C° 0,1 mm 1 m/s 715 mmHg 88%
    03:00 +6°C° 0,1 mm 1 m/s 715 mmHg 89%
    04:00 +6°C° 0,2 mm 1 m/s 715 mmHg 91%
    05:00 +6°C° 0,2 mm 1 m/s 716 mmHg 92%
    06:00 +5°C° 0,2 mm 2 m/s 716 mmHg 94%
    07:00 +6°C° 0,1 mm 2 m/s 717 mmHg 91%
    08:00 +6°C° 0,1 mm 2 m/s 717 mmHg 89%
    09:00 +7°C° 0,1 mm 2 m/s 718 mmHg 86%
    10:00 +8°C° 0,1 mm 2 m/s 718 mmHg 82%
    11:00 +8°C° 0,1 mm 3 m/s 718 mmHg 78%
    12:00 +9°C° 0,1 mm 3 m/s 718 mmHg 73%
    13:00 +8°C° 0,1 mm 3 m/s 718 mmHg 74%
    14:00 +8°C° 0,1 mm 3 m/s 718 mmHg 75%
    15:00 +8°C° 0,1 mm 3 m/s 718 mmHg 76%
    16:00 +7°C° 0 mm 3 m/s 718 mmHg 80%
    17:00 +7°C° 0 mm 2 m/s 718 mmHg 83%
    18:00 +6°C° 0 mm 2 m/s 719 mmHg 87%
    19:00 +7°C° 0 mm 1 m/s 719 mmHg 88%
    20:00 +6°C° 0 mm 1 m/s 719 mmHg 90%
    21:00 +5°C° 0 mm 1 m/s 720 mmHg 91%
    22:00 +5°C° 0 mm 1 m/s 720 mmHg 91%
    23:00 +5°C° 0 mm 1 m/s 720 mmHg 92%

    21 Dezembro, Quinta-feira

    Tempo Temperatura Precipitação Vento Pressão Humidade
    00:00 +5°C° 0 mm 1 m/s 720 mmHg 92%
    01:00 +5°C° 0 mm 1 m/s 720 mmHg 92%
    02:00 +5°C° 0 mm 1 m/s 720 mmHg 91%
    03:00 +5°C° 0 mm 1 m/s 720 mmHg 91%
    04:00 +5°C° 0 mm 1 m/s 720 mmHg 91%
    05:00 +5°C° 0 mm 1 m/s 720 mmHg 91%
    06:00 +5°C° 0 mm 1 m/s 721 mmHg 90%
    07:00 +6°C° 0 mm 1 m/s 721 mmHg 88%
    08:00 +7°C° 0 mm 1 m/s 721 mmHg 85%
    09:00 +8°C° 0 mm 1 m/s 722 mmHg 82%
    10:00 +7°C° 0 mm 2 m/s 722 mmHg 79%
    11:00 +8°C° 0 mm 2 m/s 722 mmHg 75%
    12:00 +9°C° 0 mm 2 m/s 722 mmHg 72%
    13:00 +9°C° 0 mm 2 m/s 722 mmHg 72%
    14:00 +9°C° 0 mm 2 m/s 722 mmHg 73%
    15:00 +9°C° 0 mm 2 m/s 722 mmHg 73%
    16:00 +8°C° 0 mm 2 m/s 722 mmHg 79%
    17:00 +8°C° 0 mm 1 m/s 722 mmHg 85%
    18:00 +7°C° 0 mm 1 m/s 722 mmHg 91%
    19:00 +7°C° 0 mm 1 m/s 722 mmHg 92%
    20:00 +7°C° 0 mm 1 m/s 723 mmHg 92%
    21:00 +7°C° 0 mm 1 m/s 723 mmHg 93%
    22:00 +7°C° 0 mm 1 m/s 723 mmHg 92%
    23:00 +7°C° 0 mm 1 m/s 723 mmHg 92%

    22 Dezembro, Sexta-feira

    Tempo Temperatura Precipitação Vento Pressão Humidade
    00:00 +7°C° 0 mm 1 m/s 723 mmHg 92%
    01:00 +7°C° 0 mm 1 m/s 722 mmHg 92%
    02:00 +6°C° 0 mm 1 m/s 722 mmHg 92%
    03:00 +6°C° 0 mm 1 m/s 722 mmHg 92%
    04:00 +6°C° 0 mm 1 m/s 722 mmHg 92%
    05:00 +6°C° 0 mm 1 m/s 722 mmHg 93%
    06:00 +5°C° 0 mm 1 m/s 721 mmHg 93%
    07:00 +6°C° 0 mm 1 m/s 722 mmHg 90%
    08:00 +8°C° 0 mm 1 m/s 722 mmHg 86%
    09:00 +9°C° 0 mm 1 m/s 722 mmHg 82%
    10:00 +9°C° 0 mm 1 m/s 722 mmHg 80%
    11:00 +9°C° 0 mm 2 m/s 721 mmHg 78%
    12:00 +9°C° 0 mm 2 m/s 721 mmHg 75%
    13:00 +9°C° 0 mm 2 m/s 721 mmHg 76%
    14:00 +9°C° 0 mm 2 m/s 720 mmHg 77%
    15:00 +9°C° 0 mm 2 m/s 720 mmHg 78%
    16:00 +9°C° 0 mm 2 m/s 720 mmHg 82%
    17:00 +8°C° 0 mm 2 m/s 720 mmHg 86%
    18:00 +7°C° 0 mm 2 m/s 720 mmHg 89%
    19:00 +7°C° 0 mm 2 m/s 720 mmHg 91%
    20:00 +7°C° 0 mm 2 m/s 719 mmHg 92%
    21:00 +6°C° 0 mm 2 m/s 719 mmHg 93%
    22:00 +7°C° 0,1 mm 2 m/s 719 mmHg 92%
    23:00 +7°C° 0,1 mm 3 m/s 719 mmHg 92%
    Mostrar mais